TimeEST,TemperatureF,Dew PointF,Humidity,Sea Level PressureIn,VisibilityMPH,Wind Direction,Wind SpeedMPH,Gust SpeedMPH,PrecipitationIn,Events,Conditions,WindDirDegrees,DateUTC
12:15 AM,47.8,47.3,98,29.80,7.0,Calm,Calm,-,0.05,,Overcast,0,2012-12-26 05:15:00
12:35 AM,47.5,47.3,99,29.77,7.0,Calm,Calm,-,0.07,,Overcast,0,2012-12-26 05:35:00
12:55 AM,47.3,47.3,100,29.74,4.0,Calm,Calm,-,0.13,,Overcast,0,2012-12-26 05:55:00
1:15 AM,47.3,47.3,100,29.75,4.0,Calm,Calm,-,0.07,,Overcast,0,2012-12-26 06:15:00
1:35 AM,47.5,47.5,100,29.72,5.0,Calm,Calm,-,0.15,,Overcast,0,2012-12-26 06:35:00
1:55 AM,47.3,47.3,100,29.67,2.5,East,4.6,-,0.31,,Overcast,90,2012-12-26 06:55:00
2:15 AM,48.0,48.0,100,29.65,4.0,Calm,Calm,-,0.11,,Overcast,0,2012-12-26 07:15:00
2:35 AM,49.8,49.8,100,29.63,10.0,Calm,Calm,-,0.13,,Overcast,0,2012-12-26 07:35:00
2:55 AM,51.6,49.5,92,29.59,10.0,SE,4.6,-,0.15,,Overcast,130,2012-12-26 07:55:00
3:15 AM,51.3,49.1,92,29.58,7.0,Calm,Calm,-,0.04,,Overcast,0,2012-12-26 08:15:00
3:35 AM,57.4,50.0,76,29.55,10.0,SE,15.0,38.0,0.05,,Overcast,130,2012-12-26 08:35:00
3:55 AM,57.6,49.5,74,29.51,10.0,ESE,9.2,25.3,0.05,,Mostly Cloudy,120,2012-12-26 08:55:00
4:15 AM,57.6,49.8,75,29.51,10.0,SSE,17.3,23.0,0.01,,Mostly Cloudy,150,2012-12-26 09:15:00
4:35 AM,57.2,49.8,76,29.52,10.0,SSE,15.0,21.9,0.01,,Overcast,160,2012-12-26 09:35:00
4:55 AM,56.7,50.0,78,29.52,10.0,South,17.3,26.5,0.01,,Overcast,170,2012-12-26 09:55:00
5:15 AM,55.9,49.3,78,29.50,10.0,SE,13.8,19.6,0.01,,Mostly Cloudy,140,2012-12-26 10:15:00
5:35 AM,56.5,49.1,76,29.49,10.0,South,12.7,16.1,0.01,,Overcast,170,2012-12-26 10:35:00
5:55 AM,56.5,49.3,77,29.46,10.0,SE,11.5,27.6,0.01,,Overcast,130,2012-12-26 10:55:00
6:15 AM,57.2,49.1,74,29.43,10.0,ESE,27.6,41.4,N/A,,Scattered Clouds,120,2012-12-26 11:15:00
6:35 AM,57.6,48.7,72,29.46,10.0,SE,15.0,25.3,N/A,,Mostly Cloudy,140,2012-12-26 11:35:00
6:55 AM,56.5,49.3,77,29.47,10.0,South,13.8,19.6,N/A,,Overcast,170,2012-12-26 11:55:00
7:15 AM,55.8,49.3,79,29.45,10.0,SW,6.9,18.4,N/A,,Mostly Cloudy,220,2012-12-26 12:15:00
7:35 AM,56.7,48.2,73,29.45,10.0,SSE,15.0,24.2,N/A,,Scattered Clouds,160,2012-12-26 12:35:00
7:55 AM,56.3,48.2,74,29.45,10.0,South,10.4,19.6,N/A,,Mostly Cloudy,170,2012-12-26 12:55:00
8:15 AM,56.5,48.2,74,29.46,10.0,SSW,6.9,20.7,N/A,,Overcast,200,2012-12-26 13:15:00
8:35 AM,55.4,48.7,78,29.46,10.0,WSW,8.1,-,N/A,,Overcast,250,2012-12-26 13:35:00
8:55 AM,53.6,49.5,86,29.46,7.0,SW,8.1,16.1,0.03,,Overcast,230,2012-12-26 13:55:00
9:15 AM,53.6,49.3,85,29.46,10.0,WSW,9.2,-,N/A,,Overcast,240,2012-12-26 14:15:00
9:35 AM,51.6,46.9,84,29.49,7.0,WSW,23.0,32.2,0.03,,Overcast,240,2012-12-26 14:35:00
9:55 AM,48.0,44.2,87,29.51,4.0,SW,17.3,26.5,0.05,,Overcast,230,2012-12-26 14:55:00
10:15 AM,47.5,43.5,86,29.52,10.0,WSW,13.8,25.3,0.01,,Overcast,250,2012-12-26 15:15:00
10:35 AM,47.3,42.8,84,29.53,10.0,WSW,9.2,21.9,0.01,,Overcast,240,2012-12-26 15:35:00
10:55 AM,47.5,42.8,84,29.53,10.0,WSW,17.3,24.2,0.01,,Overcast,240,2012-12-26 15:55:00
11:15 AM,45.0,39.6,81,29.55,10.0,WSW,19.6,34.5,N/A,,Overcast,240,2012-12-26 16:15:00
11:35 AM,44.6,38.8,80,29.57,10.0,WSW,15.0,26.5,N/A,,Overcast,240,2012-12-26 16:35:00
11:55 AM,44.8,38.5,79,29.56,10.0,WSW,11.5,24.2,N/A,,Overcast,240,2012-12-26 16:55:00
12:15 PM,43.2,36.9,78,29.57,10.0,SW,13.8,26.5,N/A,,Overcast,230,2012-12-26 17:15:00
12:35 PM,42.3,37.0,82,29.57,10.0,SW,9.2,18.4,N/A,,Overcast,230,2012-12-26 17:35:00
12:55 PM,41.4,37.4,86,29.58,7.0,WSW,13.8,20.7,N/A,,Overcast,240,2012-12-26 17:55:00
1:15 PM,40.3,36.9,88,29.58,10.0,West,12.7,20.7,N/A,,Overcast,260,2012-12-26 18:15:00
1:35 PM,40.5,36.1,85,29.59,10.0,West,9.2,16.1,N/A,,Overcast,260,2012-12-26 18:35:00
1:55 PM,39.7,36.5,88,29.60,10.0,West,13.8,-,N/A,,Overcast,270,2012-12-26 18:55:00
2:15 PM,38.7,35.6,89,29.61,7.0,WSW,10.4,19.6,0.01,,Overcast,240,2012-12-26 19:15:00
2:35 PM,38.5,35.6,89,29.62,7.0,WSW,11.5,-,0.01,,Overcast,250,2012-12-26 19:35:00
2:55 PM,38.3,35.6,90,29.62,10.0,WSW,11.5,-,0.01,,Overcast,240,2012-12-26 19:55:00
3:15 PM,37.8,35.2,91,29.63,5.0,WSW,11.5,17.3,N/A,,Overcast,240,2012-12-26 20:15:00
3:35 PM,37.4,35.1,91,29.64,5.0,WSW,11.5,-,0.01,,Overcast,240,2012-12-26 20:35:00
3:55 PM,36.9,34.5,91,29.66,5.0,WSW,13.8,19.6,0.01,,Overcast,240,2012-12-26 20:55:00
4:15 PM,36.3,33.8,91,29.67,4.0,WSW,16.1,24.2,0.01,,Overcast,240,2012-12-26 21:15:00
4:35 PM,36.5,32.7,86,29.69,10.0,WSW,16.1,24.2,0.01,,Overcast,240,2012-12-26 21:35:00
4:55 PM,35.6,33.1,91,29.70,5.0,WSW,12.7,-,0.01,,Overcast,250,2012-12-26 21:55:00
5:15 PM,35.2,32.2,89,29.71,7.0,WSW,10.4,-,N/A,,Overcast,240,2012-12-26 22:15:00
5:35 PM,34.9,32.0,89,29.73,7.0,WSW,16.1,19.6,N/A,,Overcast,250,2012-12-26 22:35:00
5:55 PM,35.6,30.7,82,29.74,10.0,SSW,5.8,-,N/A,,Overcast,210,2012-12-26 22:55:00
6:15 PM,34.7,31.6,89,29.75,10.0,West,6.9,-,N/A,,Overcast,260,2012-12-26 23:15:00
6:35 PM,34.0,30.9,89,29.78,10.0,West,11.5,17.3,N/A,,Overcast,270,2012-12-26 23:35:00
6:55 PM,34.2,28.8,81,29.80,10.0,WNW,9.2,17.3,N/A,,Overcast,300,2012-12-26 23:55:00
7:15 PM,34.2,28.4,79,29.81,10.0,WSW,3.5,-,N/A,,Overcast,250,2012-12-27 00:15:00
7:35 PM,34.2,28.8,81,29.82,10.0,WSW,4.6,18.4,N/A,,Overcast,250,2012-12-27 00:35:00
8:15 PM,33.4,29.5,85,29.84,10.0,WSW,10.4,-,N/A,,Overcast,240,2012-12-27 01:15:00
8:35 PM,33.3,29.5,86,29.85,10.0,SW,8.1,17.3,N/A,,Overcast,230,2012-12-27 01:35:00
8:55 PM,33.1,29.3,86,29.86,10.0,SW,8.1,16.1,N/A,,Overcast,230,2012-12-27 01:55:00
9:15 PM,32.9,29.3,87,29.86,10.0,SW,10.4,-,N/A,,Overcast,230,2012-12-27 02:15:00
9:35 PM,32.9,29.3,87,29.87,10.0,SW,9.2,-,N/A,,Overcast,220,2012-12-27 02:35:00
9:55 PM,33.1,29.3,86,29.88,10.0,SW,8.1,-,N/A,,Overcast,230,2012-12-27 02:55:00
10:15 PM,33.1,29.3,86,29.89,10.0,WSW,9.2,-,N/A,,Overcast,240,2012-12-27 03:15:00
10:35 PM,32.9,29.1,86,29.90,10.0,SW,4.6,-,N/A,,Overcast,230,2012-12-27 03:35:00
10:55 PM,32.9,28.8,85,29.90,10.0,Calm,Calm,-,N/A,,Overcast,0,2012-12-27 03:55:00
11:15 PM,32.9,28.9,85,29.90,10.0,Calm,Calm,-,N/A,,Overcast,0,2012-12-27 04:15:00
11:35 PM,32.9,29.5,87,29.92,10.0,Calm,Calm,-,N/A,,Overcast,0,2012-12-27 04:35:00
11:55 PM,33.1,29.3,86,29.92,10.0,Calm,Calm,-,N/A,,Overcast,0,2012-12-27 04:55:00